Location: Killam
(52.7910°N, 111.8608°W)
Time: 05:12:25
(UTC+00:00)

Transit 2A - Pass Details

Date: 23 February 2026
Orbit: 590 x 954 km, 66.7° (Epoch: 14 March)

Event Time Altitude Azimuth Distance (km) Brightness Sun altitude
Rises 02:06:44 0° 318° (NW) 3,615 10.1 -11.8°
Reaches altitude 10° 02:09:27 10° 323° (NW) 2,642 9.3 -12.2°
Maximum altitude 02:15:28 52° 40° (NE) 1,093 6.5 -13.1°
Enters shadow 02:19:41 18° 111° (ESE) 1,978 7.6 -13.7°
